Location: Grandview
(34.8900°N, 117.1058°W)
Time: 06:07:38
(UTC-07:00)

OTV 5 (USA 277) - Pass Details

Date: 14 October 2017
Orbit: 404 x 417 km, 43.0° (Epoch: 07 September)

Event Time Altitude Azimuth Distance (km) Brightness Sun altitude
Rises 19:39:43 0° 289° (WNW) 2,351 ? -18.3°
Reaches altitude 10° 19:42:13 10° 307° (NW) 1,489 ? -18.8°
Maximum altitude 19:44:47 20° 357° (N) 1,027 ? -19.3°
Enters shadow 19:45:15 19° 9° (N) 1,045 ? -19.4°
